Location: Bieujac
(44.5398°N, 0.1549°W)
Time: 06:23:01
(UTC+00:00)

IRS-1C Rocket - Pass Details

Date: 17 November 2019
Orbit: 800 x 806 km, 99.0° (Epoch: 07 December)

Event Time Altitude Azimuth Distance (km) Brightness Sun altitude
Rises 06:15:17 0° 15° (NNE) 3,327 7.3 -8.1°
Reaches altitude 10° 06:17:38 10° 17° (NNE) 2,391 6.6 -7.7°
Maximum altitude 06:22:56 77° 104° (ESE) 827 4.4 -6.8°
Drops below altitude 10° 06:28:10 10° 190° (S) 2,370 6.7 -5.9°
Sets 06:30:30 0° 192° (SSW) 3,296 7.4 -5.5°
